Regional Weather Roundup
Issued by NWS Upton, NY

Current Version | Previous Version | Text Only | Print | Product List | Glossary On
Versions: 1 2 3 4 5 6 7 8 9 10 11 12 13 14 15 16 17 18 19 20 21 22 23 24 25 26 27 28 29 30 31 32 33 34 35 36 37 38 39 40 41 42 43 44 45 46 47 48 49 50
000
ASUS41 KOKX 232305
RWROKX
REGIONAL WEATHER ROUNDUP
NATIONAL WEATHER SERVICE NEW YORK NY
700 PM EDT WED JUL 23 2014

NOTE: "FAIR" INDICATES FEW OR NO CLOUDS BELOW 12,000 FEET WITH NO
SIGNIFICANT WEATHER AND/OR OBSTRUCTIONS TO VISIBILITY.

NYZ071-072-176-178-NJZ106-104-240000-
NEW YORK CITY METRO AREA


CITY           SKY/WX    TMP DP  RH WIND       PRES   REMARKS
CENTRAL PARK   MOSUNNY   84  71  65 VRB5      29.79F
LAGUARDIA APRT PTSUNNY   84  71  65 S12G17    29.76F
KENNEDY INTL   PTSUNNY   78  69  73 S24G31    29.79F
NEWARK/LIBERTY PTSUNNY   89  70  53 SW13      29.76F HX  94
BRNX BOT. GARD   N/A     81  72  74 S6        29.79R
TETERBORO      MOSUNNY   89  71  55 S7        29.75F HX  95
$$

NYZ177-179-078>081-240000-
LONG ISLAND NEW YORK

CITY           SKY/WX    TMP DP  RH WIND       PRES   REMARKS
FARMINGDALE    SUNNY     77  67  71 SW16G24   29.81S
ISLIP          PTSUNNY   79  67  66 SW15G22   29.80S
SHIRLEY        SUNNY     77  69  76 S12G17    29.82F
WESTHAMPTON    SUNNY     76  67  73 SW8G20    29.84S
MONTAUK POINT    N/A     74  68  81 S12G21    29.84R
$$

NYZ052-065-067-240000-
HUDSON VALLEY

CITY           SKY/WX    TMP DP  RH WIND       PRES   REMARKS
WHITE PLAINS   SUNNY     80  71  74 S7        29.79S
NEWBURGH       MOSUNNY   86  72  62 W12       29.79R HX  92
MONTGOMERY     MOSUNNY   85  71  63 SW9       29.77R HX  90
POUGHKEEPSIE   PTSUNNY   87  71  58 SW5       29.75R HX  93
ALBANY         CLOUDY    74  69  85 NW5       29.79R
$$

NJZ001-105-106-008-010-013-015-019>022-104-240000-
NEW JERSEY

CITY           SKY/WX    TMP DP  RH WIND       PRES   REMARKS
NEWARK/LIBERTY PTSUNNY   89  70  53 SW13      29.76F HX  94
TETERBORO      MOSUNNY   89  71  55 S7        29.75F HX  95
CALDWELL       MOSUNNY   87  70  56 VRB5      29.77F HX  92
MORRISTOWN     PTSUNNY   88  72  58 SW7       29.77F HX  94
SOMERVILLE     PTSUNNY   85  72  65 S3        29.76F HX  91
LINDEN         FAIR      90  71  54 SW5       29.79S HX  96
SUSSEX         PTSUNNY   85  72  65 VRB5      29.80R HX  91
ANDOVER          N/A     82  72  71 SW3       29.80S
TRENTON        PTSUNNY   86  70  58 SW10      29.80R HX  90
MILLVILLE      SUNNY     82  73  74 VRB6      29.82F
ATLANTIC CITY  SUNNY     80  69  69 S10       29.83F
WRIGHTSTOWN    MOSUNNY   83  73  71 SW10      29.79R
TOMS RIVER     SUNNY     82  70  65 S12       29.82S
BELMAR         SUNNY     82  72  69 S10G17    29.80F
$$

PAZ047>061-062-071-240000-
EASTERN PENNSYLVANIA

CITY           SKY/WX    TMP DP  RH WIND       PRES   REMARKS
PHILADELPHIA   PTSUNNY   87  71  58 S12       29.81R HX  93
ALLENTOWN      TSTM      74  69  85 S9        29.82F
SCRANTON       LGT RAIN  74  68  81 N7        29.86R
$$

CTZ002-004>006-009-010-012-RIZ004-006-007-MAZ004-011-015-240000-
SOUTHERN NEW ENGLAND
 IN CT

CITY           SKY/WX    TMP DP  RH WIND       PRES   REMARKS
BRADLEY INTL   CLOUDY    86  72  62 S16G22    29.74S HX  92
HARTFORD       MOSUNNY   83  71  67 S13       29.76R
DANBURY        MOSUNNY   82  71  69 S10G17    29.79S
WTRBRY/OXFORD  MOSUNNY   81  72  74 S12G17    29.83S
BRIDGEPORT     SUNNY     80  71  74 SW7       29.79R
MERIDEN        SUNNY     81  70  69 S12       29.79R
NEW HAVEN      SUNNY     81  71  71 VRB5      29.80R
CHESTER        FAIR      77  70  78 S8        29.83R
GROTON         SUNNY     74  69  85 SW8       29.81R
WILLIMANTIC    MOSUNNY   81  71  71 S8        29.79R

 IN RI

CITY           SKY/WX    TMP DP  RH WIND       PRES   REMARKS
PROVIDENCE     MOSUNNY   79  68  69 SW17G23   29.80S
BLOCK ISLAND   SUNNY     73  66  78 SW15G22   29.83S
WESTERLY       SUNNY     76  66  71 SW12G21   29.83S

 IN MA

CITY           SKY/WX    TMP DP  RH WIND       PRES   REMARKS
BOSTON         PTSUNNY   82  70  66 S14       29.75
WORCESTER      MOSUNNY   80  70  71 SW12      29.80S
WESTFIELD      PTSUNNY   85  71  63 S10       29.74F HX  90
PROVINCETOWN   SUNNY     73  66  78 SW16G22   29.81R
NANTUCKET      SUNNY     70  67  90 S12       29.85S
$$

ANZ330-335-338-340-345-350-353-355-240000-
COASTAL MARINE OBSERVATIONS


STATION/POSITION TIME  SKY/WX   TEMP    WIND        PRES    VSBY  WAVE
                                AIR SEA DIR/SP/G                  HT/PER
                 (UTC)          (F)     (DEG/KT/KT) (MB)    (MI)  (FT/S)
NY HARB ENTRANCE NOT AVBL
4S FIRE IS       NOT AVBL
23SW MTP         2300            74 71              1009.3          3/ 4
HUDSON CANYON    2300            76 75  210/ 12/ 16 1010.4          2/ 8
EXECUTION ROCKS  2300            80 71  190/ 14/ 19   N/A
WESTERN LI SOUND 2300            80     180/ 14/ 17   N/A           1/ 3
CENTRAL LI SOUND 2200            76 74  210/ 14/ 17   N/A           2/ 3
EASTERN LI SOUND 2200            74 68  190/ 12/ 14   N/A
ROBBINS REEF     2300            81     170/ 15/ 17   N/A
$$


>>>>>>>>>>>>>>>>>>>>>>>>>>>> KEY <<<<<<<<<<<<<<<<<<<<<<<<<<<
>                                                          <
>     SKY/WX - SKY CONDITION/PRESENT WEATHER               <
>     TMP    - TEMPERATURE IN FAHRENHEIT                   <
>     DP     - DEWPOINT IN FAHRENHEIT                      <
>     RH     - RELATIVE HUMIDITY IN PERCENT                <
>     WIND   - DIRECTION AND SPEED IN MPH                  <
>     PRES   - MEAN SEA LEVEL PRESSURE IN INCHES OF HG     <
>     WCI    - WIND CHILL INDEX                            <
>     VSB    - VISIBILITY IN MILES                         <
>     HX     - HEAT INDEX                                  <
>     TC     - TEMPERATURE IN CELSIUS                      <
>     VRB    - VARIABLE WIND DIRECTION                     <
>                                                          <
>>>>>>>>>>>>>>>>>>>>>>>>>>>> KEY <<<<<<<<<<<<<<<<<<<<<<<<<<<




USA.gov is the U.S. government's official web portal to all federal, state and local government web resources and services.